KAL147 RKPC-RKPK

Flight info

Callsign KAL147
Flight time 0h 37m
Altitude 19000
Route AKPON1W AKPON Y571 ANROD GAYHA3
Aircraft A333/H-SDE3GHIJ2J3J5M1RVWXY/LB2D1

Departure

Time 2026-05-07 09:28
Airport Jeju International Airport (RKPC)

Arrival

Time 2026-05-07 10:05
Airport Gimhae International Airport (RKPK)
Time Latitude Longitude Altitude Speed Heading
2026-05-07 09:18 33.50719 126.49182 102 ft 0 kts 148°
2026-05-07 09:20 33.50723 126.49180 102 ft 2 kts 148°
2026-05-07 09:20 33.50736 126.49170 102 ft 2 kts 149°
2026-05-07 09:20 33.50749 126.49161 102 ft 2 kts 149°
2026-05-07 09:20 33.50762 126.49152 101 ft 2 kts 149°
2026-05-07 09:21 33.50771 126.49146 101 ft 1 kts 149°
2026-05-07 09:21 33.50782 126.49134 101 ft 2 kts 112°
2026-05-07 09:21 33.50784 126.49117 101 ft 2 kts 77°
2026-05-07 09:21 33.50782 126.49107 100 ft 0 kts 56°
2026-05-07 09:22 33.50779 126.49102 100 ft 0 kts 58°
2026-05-07 09:24 33.50781 126.49106 100 ft 1 kts 58°
2026-05-07 09:24 33.50792 126.49128 100 ft 4 kts 58°
2026-05-07 09:24 33.50813 126.49168 100 ft 6 kts 58°
2026-05-07 09:25 33.50842 126.49226 100 ft 9 kts 59°
2026-05-07 09:25 33.50878 126.49295 100 ft 11 kts 57°
2026-05-07 09:25 33.50925 126.49387 100 ft 14 kts 58°
2026-05-07 09:25 33.50984 126.49503 98 ft 17 kts 58°
2026-05-07 09:26 33.51067 126.49613 96 ft 18 kts 26°
2026-05-07 09:26 33.51189 126.49666 93 ft 11 kts 18°
2026-05-07 09:26 33.51253 126.49697 93 ft 10 kts 34°
2026-05-07 09:26 33.51299 126.49768 93 ft 11 kts 57°
2026-05-07 09:27 33.51360 126.49822 93 ft 11 kts 359°
2026-05-07 09:27 33.51431 126.49782 93 ft 11 kts 322°
2026-05-07 09:27 33.51416 126.49629 92 ft 27 kts 238°
2026-05-07 09:28 33.51142 126.49093 92 ft 123 kts 238°
2026-05-07 09:28 33.50564 126.47987 368 ft 176 kts 238°
2026-05-07 09:28 33.50262 126.47429 771 ft 180 kts 239°
2026-05-07 09:28 33.49797 126.46545 1480 ft 185 kts 240°
2026-05-07 09:29 33.49136 126.45292 2771 ft 185 kts 240°
2026-05-07 09:29 33.48479 126.44031 4059 ft 186 kts 240°
2026-05-07 09:29 33.47819 126.42760 5357 ft 186 kts 240°
2026-05-07 09:29 33.47219 126.41605 6338 ft 157 kts 240°
2026-05-07 09:30 33.46759 126.40711 6748 ft 157 kts 240°
2026-05-07 09:30 33.46662 126.40524 6841 ft 157 kts 240°
2026-05-07 09:30 33.46100 126.39432 7367 ft 155 kts 240°
2026-05-07 09:30 33.45531 126.38331 7737 ft 164 kts 240°
2026-05-07 09:31 33.44843 126.36992 7489 ft 211 kts 240°
2026-05-07 09:31 33.44010 126.35368 7562 ft 245 kts 240°
2026-05-07 09:31 33.42926 126.33672 7948 ft 270 kts 220°
2026-05-07 09:31 33.41222 126.32750 8838 ft 279 kts 194°
2026-05-07 09:32 33.39277 126.32854 9664 ft 291 kts 168°
2026-05-07 09:32 33.37384 126.33765 10426 ft 298 kts 166°
2026-05-07 09:32 33.35302 126.34330 10861 ft 313 kts 174°
2026-05-07 09:32 33.33126 126.34969 11237 ft 337 kts 162°
2026-05-07 09:33 33.31087 126.36568 11568 ft 365 kts 140°
2026-05-07 09:33 33.29542 126.39064 11858 ft 390 kts 119°
2026-05-07 09:33 33.28764 126.42205 12459 ft 402 kts 98°
2026-05-07 09:33 33.28895 126.45545 13158 ft 407 kts 78°
2026-05-07 09:34 33.29914 126.48729 13697 ft 414 kts 59°
2026-05-07 09:34 33.31376 126.51639 14323 ft 417 kts 64°
2026-05-07 09:34 33.32169 126.54993 14875 ft 422 kts 84°
2026-05-07 09:34 33.32224 126.58488 15422 ft 425 kts 89°
2026-05-07 09:35 33.32823 126.61974 15881 ft 433 kts 69°
2026-05-07 09:35 33.34291 126.65090 16450 ft 435 kts 51°
2026-05-07 09:35 33.36459 126.67625 16900 ft 437 kts 38°
2026-05-07 09:35 33.38494 126.70312 17354 ft 446 kts 55°
2026-05-07 09:36 33.40060 126.73522 17838 ft 450 kts 57°
2026-05-07 09:36 33.41781 126.76698 18364 ft 453 kts 56°
2026-05-07 09:36 33.43499 126.79831 18846 ft 457 kts 56°
2026-05-07 09:36 33.45258 126.83038 18938 ft 468 kts 56°
2026-05-07 09:37 33.47028 126.86266 18888 ft 459 kts 56°
2026-05-07 09:37 33.48778 126.89462 18932 ft 457 kts 55°
2026-05-07 09:37 33.50517 126.92640 18929 ft 455 kts 56°
2026-05-07 09:37 33.52232 126.95778 18925 ft 454 kts 55°
2026-05-07 09:38 33.53976 126.98968 18924 ft 455 kts 56°
2026-05-07 09:38 33.55703 127.02135 18929 ft 454 kts 56°
2026-05-07 09:38 33.57429 127.05296 18926 ft 455 kts 55°
2026-05-07 09:38 33.59407 127.08258 18915 ft 452 kts 45°
2026-05-07 09:39 33.61515 127.10993 18930 ft 454 kts 45°
2026-05-07 09:39 33.63654 127.13823 18925 ft 455 kts 46°
2026-05-07 09:39 33.65775 127.16657 18923 ft 454 kts 46°
2026-05-07 09:39 33.67860 127.19445 18928 ft 454 kts 46°
2026-05-07 09:40 33.69989 127.22299 18925 ft 453 kts 46°
2026-05-07 09:40 33.72080 127.25108 18926 ft 454 kts 46°
2026-05-07 09:40 33.74194 127.27947 18923 ft 454 kts 46°
2026-05-07 09:40 33.76282 127.30756 18924 ft 453 kts 46°
2026-05-07 09:41 33.78377 127.33573 18925 ft 456 kts 46°
2026-05-07 09:41 33.80507 127.36443 18921 ft 454 kts 46°
2026-05-07 09:41 33.82608 127.39273 18926 ft 456 kts 46°
2026-05-07 09:41 33.84734 127.42141 18924 ft 455 kts 46°
2026-05-07 09:42 33.86812 127.44946 18920 ft 455 kts 46°
2026-05-07 09:42 33.88922 127.47796 18922 ft 455 kts 46°
2026-05-07 09:42 33.91030 127.50648 18914 ft 455 kts 46°
2026-05-07 09:42 33.93133 127.53492 18910 ft 456 kts 46°
2026-05-07 09:43 33.95230 127.56332 18911 ft 455 kts 46°
2026-05-07 09:43 33.97355 127.59212 18911 ft 456 kts 46°
2026-05-07 09:43 33.99451 127.62057 18909 ft 456 kts 46°
2026-05-07 09:43 34.01559 127.64915 18912 ft 456 kts 46°
2026-05-07 09:44 34.03682 127.67802 18903 ft 455 kts 47°
2026-05-07 09:44 34.05794 127.70676 18914 ft 457 kts 47°
2026-05-07 09:44 34.07919 127.73569 18909 ft 459 kts 47°
2026-05-07 09:44 34.10032 127.76442 18905 ft 459 kts 46°
2026-05-07 09:45 34.12129 127.79305 18899 ft 456 kts 46°
2026-05-07 09:45 34.14232 127.82170 18902 ft 458 kts 46°
2026-05-07 09:45 34.16337 127.85048 18823 ft 448 kts 46°
2026-05-07 09:45 34.18368 127.87824 18549 ft 435 kts 46°
2026-05-07 09:46 34.20331 127.90506 18294 ft 427 kts 46°
2026-05-07 09:46 34.22301 127.93201 18055 ft 427 kts 46°
2026-05-07 09:46 34.24272 127.95901 17818 ft 425 kts 46°
2026-05-07 09:46 34.26220 127.98568 17582 ft 425 kts 47°
2026-05-07 09:47 34.28154 128.01227 17231 ft 425 kts 46°
2026-05-07 09:47 34.30093 128.03885 16717 ft 422 kts 47°
2026-05-07 09:47 34.32022 128.06537 16232 ft 416 kts 46°
2026-05-07 09:47 34.33920 128.09151 15747 ft 411 kts 46°
2026-05-07 09:48 34.35775 128.11700 15264 ft 405 kts 47°
2026-05-07 09:48 34.37624 128.14247 14769 ft 400 kts 46°
2026-05-07 09:48 34.39437 128.16746 14265 ft 396 kts 46°
2026-05-07 09:48 34.41259 128.19258 13757 ft 391 kts 47°
2026-05-07 09:49 34.43028 128.21701 13237 ft 388 kts 46°
2026-05-07 09:49 34.44787 128.24129 12727 ft 384 kts 46°
2026-05-07 09:49 34.46545 128.26561 12226 ft 380 kts 46°
2026-05-07 09:49 34.47365 128.27692 11994 ft 378 kts 46°
2026-05-07 09:50 34.48026 128.28609 11808 ft 376 kts 46°
2026-05-07 09:50 34.49290 128.30357 11468 ft 373 kts 46°
2026-05-07 09:50 34.50999 128.32724 11006 ft 369 kts 46°
2026-05-07 09:50 34.52664 128.35031 10586 ft 364 kts 46°
2026-05-07 09:51 34.54316 128.37321 10247 ft 356 kts 46°
2026-05-07 09:51 34.55910 128.39533 10204 ft 340 kts 46°
2026-05-07 09:51 34.57422 128.41632 10096 ft 327 kts 46°
2026-05-07 09:51 34.58897 128.43680 9995 ft 316 kts 46°
2026-05-07 09:52 34.60333 128.45679 9717 ft 313 kts 46°
2026-05-07 09:52 34.61747 128.47639 9411 ft 310 kts 46°
2026-05-07 09:52 34.63199 128.49568 9104 ft 305 kts 38°
2026-05-07 09:52 34.64966 128.50938 8833 ft 297 kts 25°
2026-05-07 09:53 34.66761 128.52155 8560 ft 294 kts 25°
2026-05-07 09:53 34.68528 128.53358 8292 ft 292 kts 25°
2026-05-07 09:53 34.70298 128.54568 8031 ft 289 kts 25°
2026-05-07 09:53 34.72037 128.55759 7779 ft 286 kts 25°
2026-05-07 09:54 34.73749 128.56929 7530 ft 283 kts 25°
2026-05-07 09:54 34.75473 128.58110 7271 ft 281 kts 25°
2026-05-07 09:54 34.77171 128.59273 7018 ft 279 kts 25°
2026-05-07 09:54 34.78862 128.60434 6766 ft 277 kts 25°
2026-05-07 09:55 34.80537 128.61585 6513 ft 275 kts 26°
2026-05-07 09:55 34.82176 128.62711 6266 ft 273 kts 26°
2026-05-07 09:55 34.83835 128.63849 6008 ft 272 kts 25°
2026-05-07 09:55 34.85490 128.64987 5754 ft 270 kts 25°
2026-05-07 09:56 34.87107 128.66097 5490 ft 269 kts 26°
2026-05-07 09:56 34.88739 128.67218 5222 ft 267 kts 26°
2026-05-07 09:56 34.90345 128.68326 4938 ft 258 kts 26°
2026-05-07 09:56 34.91867 128.69373 4664 ft 249 kts 26°
2026-05-07 09:57 34.93366 128.70406 4392 ft 242 kts 26°
2026-05-07 09:57 34.94823 128.71410 4151 ft 237 kts 26°
2026-05-07 09:57 34.96257 128.72395 4127 ft 237 kts 26°
2026-05-07 09:57 34.97685 128.73379 4065 ft 234 kts 26°
2026-05-07 09:58 34.99080 128.74342 3976 ft 231 kts 26°
2026-05-07 09:58 35.00469 128.75380 3947 ft 233 kts 33°
2026-05-07 09:58 35.01789 128.76605 3770 ft 237 kts 34°
2026-05-07 09:58 35.03082 128.77799 3580 ft 229 kts 33°
2026-05-07 09:59 35.04329 128.78943 3402 ft 220 kts 33°
2026-05-07 09:59 35.05523 128.80041 3260 ft 208 kts 33°
2026-05-07 09:59 35.06667 128.81093 3208 ft 203 kts 33°
2026-05-07 09:59 35.07766 128.82103 3088 ft 192 kts 33°
2026-05-07 10:00 35.08772 128.83031 2981 ft 172 kts 33°
2026-05-07 10:00 35.09705 128.83891 2780 ft 161 kts 32°
2026-05-07 10:00 35.10564 128.84682 2577 ft 150 kts 31°
2026-05-07 10:00 35.11420 128.85461 2130 ft 155 kts 31°
2026-05-07 10:01 35.12284 128.86249 1735 ft 159 kts 32°
2026-05-07 10:01 35.13126 128.87093 1730 ft 158 kts 40°
2026-05-07 10:01 35.13944 128.87978 1668 ft 159 kts 40°
2026-05-07 10:01 35.14783 128.88875 1712 ft 160 kts 40°
2026-05-07 10:02 35.15641 128.89767 1680 ft 161 kts 37°
2026-05-07 10:02 35.16621 128.90326 1651 ft 153 kts 359°
2026-05-07 10:02 35.17668 128.90353 1719 ft 151 kts 354°
2026-05-07 10:02 35.18718 128.90346 1713 ft 151 kts 353°
2026-05-07 10:03 35.19778 128.90324 1601 ft 152 kts 353°
2026-05-07 10:03 35.20831 128.90306 1382 ft 151 kts 356°
2026-05-07 10:03 35.21852 128.90685 1120 ft 156 kts 35°
2026-05-07 10:03 35.22440 128.91774 892 ft 155 kts 79°
2026-05-07 10:04 35.22316 128.93013 692 ft 146 kts 118°
2026-05-07 10:04 35.21582 128.93750 494 ft 136 kts 174°
2026-05-07 10:04 35.20670 128.93565 398 ft 134 kts 198°
2026-05-07 10:04 35.19733 128.93468 235 ft 137 kts 174°
2026-05-07 10:05 35.18797 128.93588 73 ft 134 kts 174°
2026-05-07 10:05 35.17939 128.93701 28 ft 103 kts 175°
2026-05-07 10:05 35.17417 128.93767 28 ft 48 kts 174°
2026-05-07 10:05 35.17210 128.93813 28 ft 24 kts 159°
2026-05-07 10:06 35.17065 128.93909 28 ft 23 kts 145°
2026-05-07 10:06 35.16960 128.94051 28 ft 22 kts 96°
2026-05-07 10:06 35.16978 128.94237 28 ft 21 kts 81°
2026-05-07 10:06 35.16991 128.94371 28 ft 13 kts 83°
2026-05-07 10:07 35.17002 128.94479 29 ft 12 kts 84°
2026-05-07 10:07 35.16984 128.94574 29 ft 11 kts 112°
2026-05-07 10:07 35.16953 128.94656 30 ft 11 kts 116°
2026-05-07 10:07 35.16942 128.94687 29 ft 11 kts 114°
2026-05-07 10:08 35.16912 128.94775 30 ft 11 kts 113°
2026-05-07 10:08 35.16880 128.94862 29 ft 9 kts 107°
2026-05-07 10:08 35.16900 128.94897 29 ft 3 kts 30°
2026-05-07 10:08 35.16919 128.94910 29 ft 2 kts 25°
2026-05-07 10:09 35.16928 128.94914 29 ft 0 kts 25°
2026-05-07 10:09 35.16929 128.94914 29 ft 0 kts 25°